Change the Weather History Date:

Tuesday, October 30, 2012

  Actual Average Record
Temperature  
Mean Temperature 44 °F -  
Max Temperature 49 °F 51 °F 63 °F (2014)
Min Temperature 38 °F 40 °F 37 °F (2008)
Degree Days  
Heating Degree Days 22    
Moisture  
Dew Point 42 °F    
Average Humidity 86    
Maximum Humidity 93    
Minimum Humidity 74    
Precipitation  
Precipitation 0.08 in 0.12 in - ()
Sea Level Pressure  
Sea Level Pressure 29.64 in    
Wind  
Wind Speed 9 mph ()    
Max Wind Speed 18 mph    
Max Gust Speed 29 mph    
Visibility 6.4 miles    
Events Rain    
Averages and records for this station are not official NWS values.
T = Trace of Precipitation, MM = Missing Value Source: Averaged Metar Reports

Daily Weather History Graph

Daily Weather History Graph

Search for Another Location

Airport or City:

Trip Planner

Search our weather history database for the weather conditions in past years. The results will help you decide how hot, cold, wet, or windy it might be!

Date:

Astronomy

Oct. 30, 2012 Rise Set
Actual Time 7:29 AM GMT 5:08 PM GMT
Civil Twilight 6:53 AM GMT 5:44 PM GMT
Nautical Twilight 6:12 AM GMT 6:24 PM GMT
Astronomical Twilight 5:33 AM GMT 7:04 PM GMT
Moon 5:18 PM GMT (10/30) 8:12 AM GMT (10/30)
Length of Visible Light 10h 51m
Length of Day
9h 39m
Full, 100% of the Moon is Illuminated
Oct 30
Full
Nov 7
Last Quarter
Nov 13
New
Nov 20
First Quarter
Nov 28
Full

Hourly Weather History & Observations

Time (GMT) Temp. Windchill Dew Point Humidity Pressure Visibility Wind Dir Wind Speed Gust Speed Precip Events Conditions
12:00 AM 40 °F - 36 °F 81% 29.91 in 12 mi NNW 6.7 mph - -   Mostly Cloudy
12:00 AM 39.2 °F 35.0 °F 35.6 °F 87% 29.89 in 6.2 mi NNW 5.8 mph - N/A   Mostly Cloudy
12:30 AM 39.2 °F 35.9 °F 35.6 °F 87% 29.89 in 6.2 mi NNW 4.6 mph - N/A   Mostly Cloudy
1:00 AM 41.0 °F - 35.6 °F 81% 29.89 in 6.2 mi NW 2.3 mph - N/A   Mostly Cloudy
1:30 AM 41.0 °F - 37.4 °F 87% 29.89 in 6.2 mi NW 2.3 mph - N/A   Mostly Cloudy
2:00 AM 41.0 °F 37.1 °F 37.4 °F 87% 29.86 in 6.2 mi NW 5.8 mph - N/A   Mostly Cloudy
2:30 AM 42.8 °F 40.1 °F 37.4 °F 81% 29.86 in 6.2 mi WNW 4.6 mph - N/A   Mostly Cloudy
3:00 AM 42.8 °F 41.1 °F 39.2 °F 87% 29.86 in 6.2 mi NW 3.5 mph - N/A   Mostly Cloudy
3:30 AM 44.6 °F 40.7 °F 39.2 °F 81% 29.83 in 6.2 mi West 6.9 mph - N/A   Mostly Cloudy
4:00 AM 44.6 °F 40.7 °F 41.0 °F 87% 29.83 in 6.2 mi NNW 6.9 mph - N/A   Mostly Cloudy
4:30 AM 44.6 °F 42.2 °F 41.0 °F 87% 29.83 in 6.2 mi West 4.6 mph - N/A   Mostly Cloudy
5:00 AM 44.6 °F 41.4 °F 41.0 °F 87% 29.83 in 6.2 mi West 5.8 mph - N/A   Mostly Cloudy
5:30 AM 44.6 °F 39.7 °F 41.0 °F 87% 29.80 in 6.2 mi West 9.2 mph - N/A   Mostly Cloudy
6:00 AM 45 °F - 42 °F 85% 29.81 in 10 mi West 8.9 mph - - Rain Light Drizzle
6:00 AM 44.6 °F 39.7 °F 42.8 °F 93% 29.80 in 6.2 mi West 9.2 mph - N/A   Light Drizzle
6:30 AM 44.6 °F 39.7 °F 41.0 °F 87% 29.80 in 5.6 mi West 9.2 mph - N/A   Light Drizzle
7:00 AM 44.6 °F 41.4 °F 41.0 °F 87% 29.80 in 5.0 mi SW 5.8 mph - N/A   Mostly Cloudy
7:30 AM 44.6 °F 40.7 °F 42.8 °F 93% 29.77 in 6.2 mi WSW 6.9 mph - N/A   Mostly Cloudy
8:00 AM 44.6 °F 40.2 °F 42.8 °F 93% 29.77 in 6.2 mi WSW 8.1 mph - N/A   Mostly Cloudy
8:30 AM 44.6 °F 40.2 °F 42.8 °F 93% 29.77 in 6.2 mi SW 8.1 mph - N/A   Mostly Cloudy
9:00 AM 46.4 °F 41.5 °F 42.8 °F 87% 29.77 in 5.6 mi SW 10.4 mph - N/A   Light Drizzle
9:30 AM 46.4 °F 42.4 °F 44.6 °F 93% 29.74 in 6.2 mi SW 8.1 mph - N/A   Mostly Cloudy
10:00 AM 48.2 °F - 44.6 °F 87% 29.74 in 6.2 mi WSW 12.7 mph - N/A   Mostly Cloudy
10:30 AM 48.2 °F - 44.6 °F 87% 29.71 in 3.7 mi WSW 13.8 mph - N/A   Light Drizzle
11:00 AM 48.2 °F - 44.6 °F 87% 29.71 in 6.2 mi SW 12.7 mph - N/A   Mostly Cloudy
11:30 AM 48.2 °F - 44.6 °F 87% 29.68 in 6.2 mi SW 15.0 mph - N/A   Mostly Cloudy
12:00 PM 49 °F - 43 °F 74% 29.68 in 11 mi SW 15.7 mph - -   Partly Cloudy
12:00 PM 48.2 °F - 42.8 °F 82% 29.65 in 6.2 mi SW 15.0 mph - N/A   Mostly Cloudy
12:30 PM 48.2 °F - 44.6 °F 87% 29.65 in 6.2 mi SW 15.0 mph - N/A   Mostly Cloudy
1:00 PM 48.2 °F - 44.6 °F 87% 29.62 in 3.1 mi WSW 18.4 mph - N/A Rain Light Rain
1:30 PM 48.2 °F - 44.6 °F 87% 29.62 in 6.2 mi WSW 17.3 mph - N/A   Mostly Cloudy
2:00 PM 48.2 °F - 44.6 °F 87% 29.59 in 3.7 mi WSW 15.0 mph 28.8 mph N/A Rain Light Rain
2:30 PM 48.2 °F - 44.6 °F 87% 29.56 in 6.2 mi SW 17.3 mph - N/A   Mostly Cloudy
3:00 PM 48.2 °F - 44.6 °F 87% 29.56 in 6.2 mi SW 16.1 mph - N/A   Mostly Cloudy
3:30 PM 48.2 °F - 46.4 °F 93% 29.53 in 6.2 mi SW 16.1 mph - N/A Rain Light Rain Showers
4:00 PM 48.2 °F - 44.6 °F 87% 29.53 in 6.2 mi SW 13.8 mph - N/A   Mostly Cloudy
4:30 PM 48.2 °F - 44.6 °F 87% 29.50 in 6.2 mi SW 16.1 mph - N/A   Mostly Cloudy
5:00 PM 48.2 °F - 44.6 °F 87% 29.50 in 6.2 mi SW 13.8 mph - N/A   Mostly Cloudy
5:30 PM 48.2 °F - 42.8 °F 82% 29.47 in 6.2 mi SW 16.1 mph - N/A Rain Light Rain Showers
6:00 PM 48 °F - 43 °F 78% 29.48 in 11 mi SW 15.7 mph - - Rain Light Rain Showers
6:00 PM 48.2 °F - 42.8 °F 82% 29.47 in 6.2 mi SW 16.1 mph - N/A   Mostly Cloudy
6:30 PM 48.2 °F - 42.8 °F 82% 29.44 in 6.2 mi SSW 13.8 mph - N/A   Mostly Cloudy
7:00 PM 46.4 °F 40.7 °F 42.8 °F 87% 29.42 in 6.2 mi SSW 12.7 mph - N/A   Mostly Cloudy
7:30 PM 46.4 °F 40.4 °F 42.8 °F 87% 29.42 in 6.2 mi SSW 13.8 mph - N/A   Mostly Cloudy
8:00 PM 46.4 °F 40.7 °F 41.0 °F 81% 29.39 in 6.2 mi SSW 12.7 mph - N/A   Mostly Cloudy
8:30 PM 48.2 °F - 42.8 °F 82% 29.36 in 6.2 mi SSW 12.7 mph - N/A   Mostly Cloudy
9:00 PM 48.2 °F - 42.8 °F 82% 29.36 in 6.2 mi South 13.8 mph - N/A   Mostly Cloudy
9:30 PM 48.2 °F - 42.8 °F 82% 29.33 in 6.2 mi SSW 13.8 mph - N/A   Mostly Cloudy
10:00 PM 48.2 °F - 42.8 °F 82% 29.30 in 6.2 mi SSW 13.8 mph - N/A   Mostly Cloudy
10:30 PM 48.2 °F - 42.8 °F 82% 29.30 in 6.2 mi South 10.4 mph - N/A   Mostly Cloudy
11:00 PM 48.2 °F - 42.8 °F 82% 29.27 in 6.2 mi SSW 13.8 mph - N/A   Mostly Cloudy
11:30 PM 48.2 °F - 42.8 °F 82% 29.24 in 6.2 mi South 11.5 mph - N/A   Mostly Cloudy